Location: Dattensoll
(49.9928°N, 9.8954°E)
Time: 22:46:53
(UTC+00:00)

BlueWalker 3 - Visible Passes

Search period start: 16 January 2026 00:00
Search period end: 26 January 2026 00:00
Orbit: 451 x 463 km, 53.2° (Epoch: 16 January)

Date Brightness Start Highest point End Pass type
(mag) Time Alt. Az. Time Alt. Az. Time Alt. Az.
20 Jan 3.9 17:58:22 10° S 17:59:40 16° SSE 17:59:40 16° SSE visible
21 Jan 3.7 17:23:34 10° S 17:25:40 15° SE 17:26:05 15° SE visible
21 Jan 4.5 18:59:05 10° SW 18:59:50 15° SW 18:59:50 15° SW visible
22 Jan 4.0 16:49:03 10° SSE 16:50:26 12° SE 16:51:49 10° ESE visible
22 Jan 2.9 18:23:48 10° SW 18:26:10 37° SSW 18:26:10 37° SSW visible
23 Jan 2.1 17:48:32 10° SW 17:51:58 46° SSE 17:52:26 43° ESE visible
23 Jan 5.1 19:25:55 10° W 19:26:11 12° W 19:26:11 12° W visible
24 Jan 2.5 17:13:19 10° SSW 17:16:38 37° SE 17:18:37 20° E visible
24 Jan 3.7 18:50:29 10° W 18:52:22 29° W 18:52:22 29° W visible
25 Jan 2.9 16:38:08 10° SSW 16:41:19 31° SE 16:44:31 10° E visible
25 Jan 1.8 18:15:03 10° WSW 18:18:30 71° NW 18:18:30 71° NW visible
